Location: Posillipo
(40.8167°N, 14.2167°E)
Time: 21:54:53
(UTC+00:00)

Daily predictions for brighter satellites

Satellite Brightness Start Highest point End
(mag) Time Altitude Azimuth Time Altitude Azimuth Time Altitude Azimuth
ISS -1.4 16:07:00 10° NW 16:08:57 14° N 16:10:52 10° NNE
Cosmos 1464 Rocket 4.1 16:03:43 10° S 16:10:02 73° E 16:16:25 10° N
NOAA 6 4.1 16:06:49 10° SSE 16:11:50 55° ENE 16:16:52 10° N
Cosmos 1271 Rocket 3.9 16:14:35 10° SSW 16:18:20 45° WNW 16:22:09 10° N
CZ-4B R/B 3.4 16:16:28 10° S 16:20:42 68° WSW 16:24:43 10° NNW
Cosmos 1408 Rocket 3.5 16:17:05 10° N 16:21:23 61° E 16:25:42 10° SSE
Atlas Centaur 2 4.0 16:22:23 10° SSW 16:23:09 11° SSW 16:23:54 10° S
Cosmos 1782 4.3 16:22:00 10° SE 16:24:38 17° E 16:26:58 11° NE
Cosmos 1763 Rocket 3.9 16:20:53 10° S 16:25:33 40° ESE 16:30:18 10° NE
Cosmos 1697 Rocket 3.7 16:21:08 10° N 16:25:36 24° NE 16:30:03 10° ESE
Cosmos 1743 Rocket 4.1 16:21:45 10° N 16:25:44 35° ENE 16:29:41 10° SE
Cosmos 1980 Rocket 3.8 16:24:15 10° NNE 16:27:06 14° NE 16:28:49 12° ENE
USA 267 4.3 16:22:37 10° NE 16:28:27 36° NNW 16:34:18 10° W
CZ-2C R/B 3.7 16:23:53 10° S 16:28:53 59° W 16:33:41 10° NNW
Lacrosse 5 2.6 16:24:12 10° NW 16:29:12 57° SW 16:34:11 10° SSE
Nadezhda 4 Rocket 4.0 16:23:00 10° N 16:29:17 67° E 16:35:35 10° SSE
CZ-4B DEB 4.2 16:25:40 10° SSE 16:31:07 64° ENE 16:36:34 10° N
Cosmos 1656 3.8 16:26:46 10° NNW 16:32:08 49° ENE 16:37:33 10° SE
Radarsat 4.5 16:26:58 10° SSE 16:32:08 74° ENE 16:37:20 10° N
Cosmos 2082 Rocket 3.6 16:30:43 10° SE 16:34:26 18° E 16:36:39 15° ENE
Cosmos 1340 Rocket 2.9 16:34:21 10° N 16:38:22 56° ENE 16:42:21 10° SSE
COSMOS 2406 3.9 16:34:17 10° SSE 16:39:26 35° ESE 16:43:56 13° NE
Cosmos 1092 Rocket 4.2 16:33:26 10° N 16:39:33 47° ENE 16:45:37 10° SSE
AQUARIUS 4.1 16:35:33 10° SSE 16:40:01 89° E 16:44:33 10° NNW
USA 229 DEB 4.3 16:33:38 10° NNW 16:40:30 41° NE 16:47:45 10° ESE
USA 229 4.3 16:33:44 10° NNW 16:40:35 40° NE 16:47:49 10° ESE
Cosmos 990 Rocket 4.2 16:38:33 10° N 16:43:35 47° ENE 16:48:32 10° SE
SKYMED 2 4.0 16:41:16 10° NNE 16:45:22 40° E 16:49:26 10° SSE
PAYLOAD B 4.2 16:41:10 10° SSE 16:46:43 69° ENE 16:52:18 10° N
Cosmos 1933 3.5 16:42:51 10° SSE 16:46:46 49° E 16:50:41 10° NNE
ATLAS CENTAUR R/B 3.3 16:34:58 10° SW 16:47:02 84° SE 16:50:57 17° NE
USA 276 3.6 16:44:45 10° NW 16:47:13 21° NNE 16:47:51 20° NNE
Cosmos 1602 4.2 16:45:09 10° N 16:48:42 35° ENE 16:52:15 10° SE
SJ 16-02 2.9 16:48:07 10° NNW 16:52:12 38° WSW 16:56:15 10° S
Cosmos 2034 Rocket 4.2 16:47:22 10° SSW 16:53:32 74° W 16:59:42 10° N
Cosmos 1500 Rocket 3.5 16:51:45 10° N 16:56:14 84° E 17:00:38 10° S
CZ-2D R/B 3.2 16:55:27 10° SSE 16:59:18 87° WSW 17:03:09 10° NNW
USA 234 3.9 16:54:16 10° SSE 17:00:41 58° SW 17:07:08 10° NW
NOSS 3-1 (A) 4.1 16:56:40 10° NNW 17:04:10 60° NE 17:12:52 10° SE
Meteor 1-20 Rocket 4.2 17:00:41 10° N 17:06:33 86° E 17:12:24 10° S
Cosmos 1805 Rocket 3.4 17:02:47 10° N 17:07:05 63° E 17:11:22 10° SSE
Cosmos 1833 Rocket 2.6 17:01:31 10° SSW 17:07:07 78° ESE 17:11:51 15° NNE
NOSS 3-1 (C) 4.2 16:59:38 10° NW 17:07:22 90° ENE 17:16:18 10° SSE
Cosmos 2279 Rocket 4.3 17:03:13 10° SSE 17:09:00 42° E 17:14:47 10° NNE
CZ-4B R/B 3.1 17:05:57 10° SSE 17:11:26 77° ENE 17:16:50 10° N
Cosmos 2360 4.4 17:06:51 10° NNW 17:12:25 49° ENE 17:17:56 10° SE
ARGOS 3.1 17:10:22 10° SSE 17:15:43 66° ENE 17:21:06 10° N
H-2A R/B 2.3 17:12:10 10° S 17:17:26 72° WSW 17:22:35 10° NNW
Sich 1 2.9 17:14:02 10° N 17:18:18 64° E 17:22:32 10° SSE
YAOGAN 3 4.4 17:14:27 10° SSE 17:18:46 70° ENE 17:23:07 10° N
Cosmos 1634 Rocket 3.9 17:12:43 10° S 17:19:01 82° E 17:25:23 10° N
GPS 2-04 Rocket1 3.9 17:16:07 10° SW 17:19:46 32° SSE 17:20:42 28° SE
Cosmos 1898 Rocket 3.4 17:17:03 10° NNW 17:22:19 78° ENE 17:27:32 10° SSE
MOS 1-B Rocket 4.2 17:16:52 10° N 17:22:38 72° WNW 17:29:06 10° SSW
COSMOS 2455 2.9 17:17:40 10° S 17:23:29 55° ESE 17:25:52 34° NE
Cosmos 468 Rocket 4.5 17:20:29 10° SSW 17:25:32 58° WNW 17:30:21 12° N
CZ-4 R/B 4.3 17:23:20 10° SSE 17:27:26 83° ENE 17:31:35 10° N
Landsat 5 3.3 17:27:18 27° NNE 17:29:34 88° WNW 17:33:37 10° SSW
Cosmos 44 3.8 17:26:11 10° NW 17:30:48 55° WSW 17:35:09 10° SSE
COSMO-SKYMED 1 3.1 17:29:13 10° N 17:33:28 58° WNW 17:37:42 10° SSW
SL-08 RB Rocket 3.6 17:29:09 10° SSE 17:33:46 69° ENE 17:38:23 10° N
Cosmos 540 Rocket 3.4 17:29:03 10° SSW 17:34:09 82° WNW 17:37:03 26° NNE
deb Chang Zheng 4 4.0 17:29:58 10° S 17:34:12 62° WSW 17:38:30 10° NNW
Meteor 2-16 Rocket 4.4 17:28:13 10° N 17:34:14 58° E 17:40:15 10° SSE
Cosmos 2026 Rocket 4.1 17:30:34 10° N 17:36:43 76° W 17:42:45 10° S
SJ-11-01 4.4 17:32:58 10° S 17:37:42 74° WSW 17:42:28 10° NNW
Okean O Rocket 1.8 17:34:03 10° S 17:38:27 70° WSW 17:42:56 10° NNW
CZ-2C R/B 3.1 17:34:35 10° N 17:39:44 59° WNW 17:44:47 10° SSW
Cosmos 2180 Rocket 4.4 17:39:49 10° S 17:46:06 65° E 17:49:36 27° NNE
ISS -0.9 17:44:36 10° NNW 17:44:55 11° NNW 17:44:55 11° NNW
CZ-4C R/B 3.4 17:42:55 10° NNW 17:49:39 39° NE 17:49:48 39° NE
Meteor 1-5 Rocket 4.2 17:51:29 10° N 17:57:31 79° E 18:03:26 10° SSE
GEOS 3 Rocket 3.7 17:56:53 43° SSE 17:58:39 77° SW 18:03:54 10° NW
NOAA 15 4.5 17:53:44 10° SSE 17:59:02 88° E 18:04:21 10° NNW
Cosmos 2084 4.0 17:56:11 10° NW 17:59:41 56° WNW 17:59:41 56° WNW
Cosmos 2369 3.6 17:56:01 10° NNW 18:01:48 86° ENE 18:02:24 72° SE
DMSP B5D2-2 4.0 18:06:38 84° W 18:06:38 84° W 18:11:49 10° SSW
Cosmos 841 Rocket 4.1 18:03:46 10° SW 18:08:49 52° WNW 18:10:09 41° NNW
Cosmos 1697 Rocket 3.3 18:04:26 10° NNW 18:09:53 53° WSW 18:15:18 10° S
Cosmos 1937 Rocket 4.1 18:04:54 10° NNW 18:10:06 55° WSW 18:15:15 10° S
Cosmos 1980 Rocket 2.6 18:06:21 10° NNW 18:10:39 53° NNW 18:10:39 53° NNW
IRAS Rocket 4.2 18:13:13 76° SSW 18:13:13 76° SSW 18:18:17 10° SSW
Cosmos 2082 Rocket 2.5 18:12:19 10° SW 18:17:57 62° WNW 18:18:33 58° NNW
Meteor 2-15 4.4 18:12:43 10° S 18:18:15 74° S 18:18:15 74° S
CZ-4C R/B 4.3 19:31:12 10° NW 19:35:02 33° NW 19:35:02 33° NW
